Location: Ferintosh
(52.7647°N, 112.9692°W)
Time: 21:22:39
(UTC+00:00)

A-11 Canister half - Pass Details

Date: 20 May 2024
Orbit: 1524 x 1683 km, 47.3° (Epoch: 19 June)

Event Time Altitude Azimuth Distance (km) Brightness Sun altitude
Rises 07:45:18 0° 256° (WSW) 4,726 11.4 -17.0°
Reaches altitude 10° 07:48:21 10° 254° (WSW) 3,761 10.8 -17.0°
Maximum altitude 07:57:45 64° 176° (S) 1,748 9.0 -16.8°
Drops below altitude 10° 08:07:29 10° 98° (E) 3,888 11.1 -16.6°
Sets 08:10:41 0° 96° (E) 4,893 11.7 -16.5°
